Wind_Speed
41 41 40 38 36 36 36 33 29 27 27 28 30 31 28 25 23 23 21 20 19 19 16 13 12 11 8 6 6 8 10 12 15 15 15 15 16 14 9 6 6 8 10 12 14 15 16 16 16 16 16 16 18 24 30 34 34 32 32 33 35 36 37 37 37 37 38 38 37 36 36 35 35 34 33 32 31 30 29 27 26 26 25 25 25
40 40 39 38 37 36 35 35 32 29 29 30 32 32 29 25 24 24 24 22 21 21 19 16 14 13 10 8 7 7 8 12 15 15 15 14 15 16 13 8 6 7 9 11 13 15 17 18 18 19 19 19 20 23 28 33 36 36 35 35 35 37 39 39 39 39 39 39 39 38 37 37 36 35 34 34 33 32 32 30 29 28 27 26 26
40 39 39 38 37 35 33 35 35 31 30 30 31 33 31 27 25 25 23 21 20 22 22 18 15 14 12 11 9 8 8 12 15 16 15 15 15 15 16 13 8 7 8 10 12 13 15 18 19 21 21 21 22 25 28 32 36 38 39 38 37 38 40 41 42 41 41 41 41 40 39 39 38 37 36 35 35 35 34 33 32 31 30 28 27
37 37 37 36 35 32 30 32 35 33 30 29 30 33 34 29 26 24 22 19 18 20 21 18 17 17 13 11 11 10 11 12 14 15 15 15 15 14 15 16 13 10 8 9 11 12 13 15 18 20 22 22 24 26 29 32 35 39 41 41 41 40 41 42 43 44 44 43 43 42 41 41 40 39 38 37 37 37 36 35 34 33 33 32 30
35 35 35 34 33 30 28 29 33 33 31 29 31 35 36 30 25 23 22 19 19 20 20 19 20 20 16 14 14 12 11 11 12 14 15 15 16 14 14 15 16 15 11 9 10 11 12 13 15 18 21 23 24 26 29 32 35 38 42 43 44 43 44 44 45 45 46 46 45 44 43 42 42 41 40 39 38 38 38 37 36 35 34 34 33
33 33 34 34 31 28 27 29 31 31 30 29 31 34 35 31 25 22 21 21 21 22 22 21 21 20 18 18 16 12 10 10 11 13 14 15 15 14 13 13 14 16 16 13 10 10 10 10 12 15 18 21 23 26 29 32 35 38 41 44 46 46 46 46 46 47 47 47 47 46 45 44 43 43 42 41 40 40 39 38 38 37 36 35 36
30 31 33 34 31 27 28 30 32 32 29 29 31 32 33 31 27 22 21 21 21 23 24 23 20 18 18 19 16 12 10 10 10 12 13 14 15 14 14 13 12 13 15 16 15 11 9 9 10 12 13 15 19 23 27 31 34 37 40 44 47 48 49 48 48 49 49 49 48 48 47 46 45 45 44 42 42 42 41 41 40 38 37 37 38
28 29 31 33 31 28 29 32 33 33 32 31 29 28 28 30 29 25 22 21 21 22 23 23 21 19 18 19 17 13 12 10 10 12 13 14 14 14 14 13 12 12 13 15 16 15 12 9 10 11 11 11 13 17 23 28 31 34 37 40 44 48 50 50 50 50 51 50 50 49 49 48 48 47 46 44 44 43 43 43 43 41 40 40 40
27 27 28 31 32 30 30 32 32 33 36 34 29 26 27 30 31 28 24 23 24 25 25 24 23 21 20 20 18 15 14 12 12 13 14 14 14 14 15 15 13 12 12 13 15 16 15 12 10 11 11 11 11 13 17 21 25 29 32 35 39 44 48 51 52 52 52 52 52 51 50 50 49 49 48 46 45 45 45 45 45 44 43 42 41
27 27 28 30 32 33 33 34 35 34 34 34 32 29 29 31 33 31 28 28 29 29 28 26 25 23 23 23 20 18 16 14 14 15 15 15 15 15 15 16 15 14 13 13 14 15 16 15 13 12 12 12 11 11 13 16 19 23 26 29 33 37 42 47 51 53 54 54 53 53 52 52 52 50 49 49 47 47 47 47 47 47 46 45 44
27 27 28 29 31 35 36 36 37 37 34 34 34 31 30 33 34 32 30 31 32 32 30 29 27 25 25 25 23 20 17 15 16 17 17 17 17 16 16 16 16 16 14 13 13 14 15 16 15 14 12 12 12 12 13 14 17 19 20 23 26 30 34 39 45 50 53 55 55 54 54 54 53 52 51 51 50 49 49 49 50 50 49 49 48
25 26 28 29 30 34 38 38 39 39 39 38 37 35 35 37 37 36 34 33 32 31 31 30 28 27 27 26 26 23 20 17 18 20 20 20 20 19 18 18 18 18 17 15 14 14 15 15 15 15 14 13 13 13 13 14 16 17 19 20 22 24 27 30 35 41 47 52 55 55 55 55 54 53 53 52 52 52 52 52 52 52 52 52 51
23 23 26 29 30 31 36 40 42 42 42 43 43 41 41 40 40 40 37 34 32 32 31 31 29 28 28 28 27 25 23 20 20 22 23 23 22 22 22 21 21 20 19 18 17 15 15 15 15 15 13 13 13 13 13 14 15 16 18 19 21 22 23 25 28 33 38 44 49 53 55 55 55 55 54 54 54 54 54 55 55 55 55 54 54
22 23 24 27 30 31 34 41 46 46 44 45 46 45 44 40 39 38 37 35 35 35 34 34 32 30 29 28 28 28 26 23 22 24 26 25 24 25 26 25 25 24 22 22 21 18 17 17 17 16 15 13 12 12 13 13 13 15 17 19 21 22 23 24 25 27 31 35 40 46 49 52 54 55 55 56 56 56 56 56 56 57 57 57 56
23 24 25 26 29 33 35 40 45 47 46 46 47 48 47 44 41 40 40 39 39 39 39 39 37 34 33 32 31 31 30 26 25 26 28 28 27 28 29 29 28 26 24 24 24 22 21 20 19 18 17 16 14 12 12 12 12 13 15 16 18 20 22 24 25 25 27 30 34 39 43 46 50 53 55 57 58 57 57 58 59 59 57 56 57
27 26 27 27 27 31 35 39 43 47 49 49 50 51 50 49 46 43 43 42 41 41 42 41 39 38 37 36 34 32 30 28 28 29 31 31 31 32 32 31 30 29 27 26 26 25 24 24 23 21 20 19 17 15 14 14 13 12 12 12 13 15 17 19 21 23 25 27 31 34 38 42 46 49 53 55 57 58 58 59 61 60 57 56 58
31 30 29 27 26 27 30 34 39 43 48 51 53 54 54 52 50 46 45 44 44 43 43 42 40 39 38 37 35 33 32 31 32 32 32 33 34 35 34 32 32 33 32 31 29 29 28 28 27 25 24 22 19 18 18 17 16 14 12 11 11 12 12 12 13 15 18 21 25 28 32 36 39 43 47 50 53 56 58 60 62 61 59 59 62
32 34 33 31 28 26 26 28 30 34 40 46 51 53 54 53 52 49 46 45 45 46 46 45 43 42 41 39 36 35 35 35 35 35 34 35 37 38 37 36 34 34 34 33 33 33 32 31 30 29 28 25 22 20 20 21 20 17 15 13 12 13 11 9 9 11 13 15 19 22 26 29 32 36 40 43 46 49 53 57 60 60 60 63 65
31 33 35 35 33 31 29 27 27 29 32 37 42 47 50 52 53 52 50 47 45 45 46 47 46 45 44 42 40 39 38 38 38 37 37 38 40 40 40 39 37 34 34 36 37 36 35 33 32 31 30 28 26 23 23 24 24 22 19 16 16 16 13 11 11 12 14 15 17 19 22 25 27 30 34 37 39 42 46 50 53 54 56 60 63
28 30 32 34 35 35 33 31 30 30 30 32 35 39 44 47 50 52 53 53 50 47 45 45 45 45 44 43 42 42 42 42 41 40 41 42 43 43 43 43 41 38 39 41 39 38 36 35 33 32 31 30 29 28 26 26 27 26 24 22 20 19 17 15 16 16 17 17 18 19 20 22 24 27 30 32 34 37 41 44 46 48 50 54 58
25 26 28 30 32 34 34 33 33 32 32 33 34 35 38 42 45 47 50 52 53 51 49 46 45 44 43 43 43 44 45 46 45 44 45 45 45 45 46 46 45 44 45 44 41 39 37 36 34 34 33 32 32 31 30 30 30 30 29 27 25 22 20 19 18 18 19 20 21 21 21 21 22 24 25 27 28 31 34 38 40 42 45 49 53
22 24 25 27 29 31 33 34 34 34 34 34 34 35 36 38 40 43 46 48 51 53 53 51 48 45 43 44 44 44 44 45 45 45 46 45 45 47 49 49 48 48 47 45 43 42 41 39 38 36 35 35 35 35 34 33 33 34 33 32 30 27 25 22 21 21 22 23 24 24 24 24 24 25 25 26 26 26 28 32 35 38 41 45 48
22 23 24 25 27 28 30 32 33 34 34 34 35 36 36 36 37 39 41 44 47 51 54 53 51 48 46 45 45 44 44 43 43 43 43 43 44 45 46 48 49 50 49 48 46 44 44 44 42 39 37 36 37 38 37 36 36 36 36 35 34 33 31 28 26 25 25 26 27 28 28 27 27 28 29 29 29 27 26 28 31 33 36 39 42
23 24 25 26 27 28 29 31 32 33 34 35 35 36 37 37 37 37 38 40 42 46 50 51 53 53 51 50 48 48 48 46 45 44 43 44 45 43 42 44 48 48 48 49 48 47 47 47 44 41 39 38 39 39 39 39 38 38 38 38 38 37 36 35 34 32 31 30 30 31 32 31 31 31 31 32 33 33 31 30 28 28 29 32 33
22 24 25 26 27 28 29 30 31 32 34 35 35 36 37 38 38 38 39 39 41 43 45 47 49 52 54 54 53 52 51 51 50 49 48 48 48 48 48 50 51 51 51 51 51 51 50 47 45 44 43 42 42 41 41 41 41 40 40 40 40 40 40 40 40 39 39 38 37 36 36 35 35 34 34 34 35 37 38 36 33 32 31 31 32
19 22 24 26 27 29 30 31 31 32 33 34 35 36 37 38 39 40 41 42 42 43 44 46 47 49 51 53 53 53 53 53 52 52 52 51 51 53 54 56 57 58 58 58 57 55 53 51 49 49 49 48 47 46 45 44 44 44 43 42 41 41 42 43 44 45 45 46 46 44 43 42 40 38 38 38 38 39 41 40 39 39 38 37 36
14 16 19 21 24 26 28 30 32 33 34 34 35 36 37 38 39 40 41 43 45 45 46 47 48 49 50 51 52 53 55 56 55 56 56 55 56 57 58 59 61 61 62 61 60 58 57 56 55 54 54 53 52 51 50 49 47 47 46 45 44 43 44 45 46 48 49 51 51 52 52 51 48 46 44 43 42 43 43 42 42 44 45 44 43
13 14 15 16 19 21 23 26 28 31 33 34 36 36 37 37 38 39 40 43 45 48 49 50 50 51 52 52 53 54 55 56 57 58 58 58 59 60 60 61 62 62 61 61 60 60 60 59 58 57 56 56 55 54 53 52 51 50 51 51 51 50 50 50 50 51 52 53 54 55 57 57 56 55 53 51 49 49 48 46 45 46 48 48 48
16 16 15 15 16 17 19 20 22 25 28 31 34 36 37 38 39 39 40 41 43 47 50 53 54 54 53 54 55 56 57 57 58 58 59 60 61 61 62 62 63 62 61 61 61 60 60 60 59 58 57 57 57 56 56 56 56 56 56 57 57 58 58 58 57 57 57 56 56 58 60 61 61 61 60 59 58 57 56 54 51 51 51 51 50
19 19 19 17 17 17 17 18 19 20 22 24 28 31 34 37 39 40 41 42 43 44 47 51 55 57 58 57 57 58 59 60 60 60 60 61 63 63 64 64 63 63 63 63 63 62 61 61 60 59 59 59 59 59 59 60 61 62 63 63 62 62 62 63 64 64 64 62 61 61 62 63 64 65 65 65 64 64 63 61 58 57 56 56 55
22 22 22 21 20 19 18 18 18 18 19 20 22 24 27 30 33 36 39 41 42 44 45 47 50 54 58 60 60 60 61 62 63 63 62 61 61 62 63 64 65 65 65 65 65 65 64 63 63 63 63 63 64 64 64 65 66 68 68 68 67 67 67 68 69 69 70 69 68 67 66 67 67 68 68 68 67 68 68 67 65 63 62 61 60
25 25 25 25 24 23 22 21 21 20 20 20 21 22 23 25 27 29 32 34 37 39 41 44 46 48 51 55 58 59 60 61 63 65 66 66 66 65 65 65 66 67 67 68 68 68 68 68 68 68 69 69 69 69 69 70 70 71 71 71 71 72 72 73 73 73 74 74 73 72 71 71 70 71 71 71 71 71 71 71 71 70 68 66 65
29 29 29 28 28 27 27 26 25 24 24 24 24 24 25 26 26 27 28 29 31 32 34 37 40 43 45 48 51 54 55 57 59 61 64 67 69 71 71 70 70 69 69 69 69 70 71 71 72 72 73 73 74 73 73 73 73 73 74 74 75 76 77 77 77 77 77 77 77 77 75 74 74 74 75 75 75 75 75 75 75 74 73 71 70
32 32 32 31 31 31 30 29 28 28 28 27 27 27 28 28 29 29 30 30 31 32 32 33 34 36 39 42 44 47 50 52 54 56 58 60 63 66 69 70 71 72 73 73 73 73 73 73 74 74 75 75 76 77 77 78 78 78 79 79 80 80 81 81 81 81 80 80 80 79 78 77 76 76 77 77 78 78 78 78 78 77 76 74 73
34 33 33 33 33 33 32 31 30 30 29 29 29 29 29 29 30 31 31 32 32 33 34 34 35 35 37 38 40 42 44 46 49 51 53 55 57 59 61 63 65 67 70 72 74 75 76 76 77 77 78 78 79 79 80 80 80 81 81 82 82 83 83 83 83 83 82 82 82 81 81 80 80 80 80 80 81 80 81 81 81 81 80 80 79
35 35 34 34 34 33 32 31 31 31 30 29 28 27 27 27 28 29 30 31 32 33 34 35 36 37 38 39 39 40 41 43 45 47 49 51 53 54 56 57 59 60 62 64 66 68 70 72 74 75 77 78 79 80 81 81 81 81 82 82 82 83 83 83 84 83 83 83 82 82 82 81 81 82 82 82 82 82 82 83 83 83 83 83 82
36 36 35 34 33 33 32 31 30 29 29 28 26 25 25 26 27 28 30 31 32 33 34 35 36 38 39 40 41 41 42 42 43 44 45 46 48 49 50 52 53 54 55 57 58 59 61 63 64 66 68 69 71 72 73 74 75 76 77 77 78 78 79 79 79 79 79 79 79 79 79 79 79 78 78 78 78 78 79 80 80 81 81 82 82
39 37 36 35 33 32 31 29 27 26 27 27 26 25 26 26 27 29 30 31 32 33 34 34 35 37 39 40 41 41 42 42 42 41 42 43 43 44 45 46 47 48 49 50 51 52 54 55 56 57 58 60 61 62 63 65 66 67 68 69 70 70 71 71 72 72 72 72 72 72 72 72 72 72 72 72 72 73 73 74 75 77 78 79 81
40 40 38 36 34 32 31 29 27 26 27 27 27 26 26 27 28 29 29 29 30 31 31 32 33 35 36 37 38 39 39 39 39 39 39 40 40 40 41 41 42 43 44 45 46 47 48 49 50 51 52 53 54 55 56 56 57 58 58 59 60 61 62 62 63 63 63 64 64 64 64 64 64 64 64 65 65 66 67 68 69 71 72 73 75
36 38 39 38 36 34 33 30 29 28 28 28 28 27 27 27 27 27 27 27 28 28 29 30 30 31 33 34 35 36 37 37 37 37 37 37 37 38 38 38 39 39 39 40 41 42 43 44 45 46 46 47 47 48 48 49 49 49 49 50 51 51 52 53 54 55 55 56 56 56 57 57 57 58 58 59 60 62 63 64 65 67 68 69 70
34 34 36 37 37 36 35 33 31 29 29 29 28 27 26 27 27 27 27 28 28 28 29 29 29 30 30 31 32 33 34 35 35 35 35 35 35 35 35 35 35 35 35 36 36 37 38 38 39 39 39 40 40 40 40 40 41 41 42 42 43 44 44 46 46 47 48 49 49 50 51 51 52 53 55 56 58 59 60 61 62 63 64 65 66
35 33 33 33 34 34 35 34 32 30 30 29 29 28 27 27 28 29 29 29 29 29 29 29 28 28 28 29 29 30 31 32 33 33 33 33 33 33 33 32 31 31 31 31 31 31 32 32 32 32 33 33 34 34 34 35 36 36 37 38 39 39 40 41 43 44 45 46 46 47 48 49 51 52 54 55 56 56 56 56 56 56 57 57 57
37 34 33 32 31 31 32 33 33 32 31 31 30 30 30 29 29 30 30 30 29 29 29 28 27 26 26 26 27 28 29 30 30 30 30 31 31 30 30 30 30 30 30 29 29 29 28 28 28 29 29 30 30 31 32 33 33 34 36 36 37 38 39 40 41 42 44 45 47 48 49 50 51 51 51 50 48 47 46 45 45 45 45 45 46
39 36 34 33 32 30 31 32 33 33 33 33 33 33 33 32 31 30 29 29 28 27 26 24 23 22 22 22 24 25 26 26 27 27 27 28 28 28 29 29 29 29 29 29 28 28 28 28 28 28 29 30 30 31 32 32 33 34 34 35 36 36 37 38 39 40 41 43 44 44 45 44 44 42 40 39 37 37 36 36 36 37 37 38 38
40 38 36 34 33 32 31 32 34 35 35 35 35 35 34 31 29 28 27 26 25 22 20 18 17 17 18 20 21 22 23 23 24 24 25 25 25 26 27 28 29 29 29 28 27 26 25 25 26 27 27 28 29 30 30 31 32 32 33 34 35 35 35 36 36 36 37 37 37 36 35 35 34 33 32 32 32 32 32 32 33 33 33 34 35
40 39 37 35 34 32 32 32 34 36 38 37 35 33 31 29 28 26 25 23 21 20 19 19 20 21 23 25 25 25 25 24 24 24 24 24 25 26 26 27 27 27 27 25 23 21 21 21 23 24 25 26 27 28 28 29 30 31 32 33 34 34 34 34 34 34 33 32 32 31 31 30 30 30 30 30 31 32 33 34 34 34 35 35 36
41 41 40 38 35 33 33 33 34 36 38 37 35 32 30 28 27 27 26 25 24 25 25 27 28 30 31 32 31 31 30 29 28 27 26 26 26 26 26 27 27 26 25 23 21 21 22 24 25 26 26 27 28 29 29 30 30 31 31 32 32 32 32 32 31 31 31 31 31 30 30 31 31 32 33 34 35 37 38 38 39 39 39 39 40
42 43 44 42 38 35 34 34 34 35 36 35 34 33 31 30 30 29 29 29 29 30 31 33 34 36 36 37 36 36 35 33 32 31 31 30 29 28 28 28 28 28 27 26 26 28 29 30 30 31 31 32 32 33 33 33 34 34 33 33 32 31 31 31 31 31 31 31 32 33 34 35 36 37 38 39 40 41 42 43 43 43 43 43 43
44 46 47 46 44 40 36 34 33 34 35 35 34 34 34 33 33 33 33 33 34 35 36 37 38 39 40 40 40 39 38 36 35 34 34 34 33 31 30 29 30 31 32 32 33 35 36 36 36 36 36 37 37 37 38 38 38 38 37 37 36 35 35 35 35 36 37 38 39 40 41 42 42 43 43 43 44 44 45 45 45 46 46 47 47
46 47 48 48 48 45 42 39 37 36 37 37 37 37 37 37 37 38 38 38 39 40 41 42 43 44 44 44 43 41 40 38 37 36 36 36 35 34 33 33 33 33 34 35 37 39 40 41 42 42 41 41 41 42 42 42 43 42 42 41 41 40 40 40 41 42 43 44 45 46 47 48 48 49 49 48 48 49 49 49 49 50 50 51 51
46 47 48 48 48 48 47 46 44 43 42 42 42 41 41 41 42 42 43 43 44 45 46 47 48 48 47 46 44 42 41 40 38 38 37 37 37 37 37 36 36 36 36 37 39 40 42 44 45 46 46 46 46 46 46 47 47 47 47 46 46 45 45 45 46 47 48 49 50 50 51 52 53 53 54 53 53 54 55 55 55 55 55 55 56
Wind_Direction
226 226 227 230 230 228 224 220 221 227 232 237 240 242 247 251 252 257 261 263 272 267 246 238 248 251 257 290 321 330 337 347 352 357 1 6 9 6 352 317 279 262 253 249 243 235 229 229 235 241 242 240 232 226 223 222 223 224 225 224 225 224 224 224 224 225 225 225 226 227 227 227 228 229 231 233 235 237 239 241 244 246 247 250 250
226 225 224 225 226 228 225 217 217 221 225 232 235 236 242 249 250 253 252 252 261 261 246 235 241 248 255 276 303 318 331 341 345 349 356 0 6 10 6 345 304 278 268 262 253 242 235 235 239 243 244 243 239 231 226 224 223 224 225 225 226 227 226 226 226 226 227 228 228 229 230 230 231 233 234 236 238 240 241 243 245 245 246 248 250
224 222 220 220 223 228 227 220 218 219 222 229 232 231 237 245 248 247 240 240 255 256 246 241 242 246 258 280 297 307 321 331 333 339 348 353 357 6 10 5 342 301 282 274 267 256 247 244 245 248 247 244 240 234 229 227 225 225 225 226 226 227 228 229 228 228 229 229 230 231 232 232 233 235 237 239 241 242 243 245 246 246 245 245 248
221 220 218 218 220 225 227 223 222 222 222 225 227 228 235 241 243 239 233 238 252 251 245 245 242 242 259 290 296 295 305 313 320 329 338 344 348 355 4 8 4 344 310 286 282 280 271 261 255 252 249 243 238 234 231 229 227 227 227 227 227 228 228 229 230 230 230 231 231 232 233 234 235 236 238 241 242 243 244 246 248 248 247 246 249
219 218 217 217 220 223 224 223 223 222 221 223 223 226 233 238 238 235 233 240 247 245 242 239 238 245 263 280 283 286 298 303 308 319 329 334 338 344 351 358 4 3 349 318 297 293 292 284 268 258 251 244 239 235 233 231 230 229 229 229 229 230 230 230 230 231 232 232 233 233 234 235 236 237 238 241 242 243 244 247 249 251 250 250 251
219 218 217 218 220 221 221 221 221 219 220 222 222 224 229 234 236 234 233 238 243 247 248 242 240 252 263 264 266 277 289 296 301 310 321 326 327 332 340 346 354 2 2 352 329 306 298 297 286 271 260 251 244 239 236 234 233 232 231 230 230 232 232 232 232 232 233 234 235 235 236 237 237 238 240 241 242 242 244 247 250 253 254 254 254
220 219 218 220 220 219 220 220 218 216 216 216 219 225 229 231 235 236 234 238 247 255 256 249 247 256 257 252 254 262 271 284 296 302 308 316 320 321 326 335 344 352 358 359 353 337 310 296 294 289 280 267 254 246 242 239 237 236 234 233 232 232 234 235 235 235 235 235 236 237 238 239 239 240 241 243 243 243 244 247 249 252 255 256 256
220 219 219 219 219 219 219 217 216 216 214 212 217 228 234 235 238 238 234 238 250 256 250 245 247 252 248 246 247 249 256 269 282 290 295 303 312 313 312 321 332 340 347 351 354 352 338 309 292 292 294 287 270 256 250 247 244 242 240 238 236 234 234 235 237 237 237 237 238 239 240 241 241 242 243 245 246 245 246 248 249 251 253 255 256
219 219 218 218 219 221 218 211 211 214 214 213 216 224 231 235 238 239 237 239 247 250 245 244 250 250 244 244 243 241 246 258 270 278 285 291 300 304 303 306 316 326 333 337 341 346 346 334 309 292 291 289 278 265 259 256 254 251 248 244 242 239 237 236 237 238 239 240 239 240 241 242 243 244 245 247 248 249 249 250 250 251 252 254 256
217 216 215 215 218 219 215 209 209 211 212 211 212 216 223 229 233 237 238 236 237 240 243 248 253 250 243 243 241 235 239 251 262 271 279 283 287 294 296 296 301 310 319 325 328 331 337 340 332 311 296 292 286 275 265 260 258 256 254 252 249 246 243 240 238 239 240 241 242 242 242 243 244 245 246 247 249 250 251 251 252 253 254 255 256
217 217 213 212 213 214 212 209 210 211 210 208 209 213 220 226 229 232 234 231 232 236 241 245 247 245 243 243 241 236 238 248 258 266 273 278 279 283 287 287 291 297 303 311 317 319 323 330 334 329 314 302 296 288 276 266 260 258 256 256 255 253 250 246 243 241 240 241 243 244 244 245 245 246 247 248 249 250 251 251 252 253 255 256 257
222 221 216 212 210 211 210 208 209 211 211 211 211 213 217 221 224 226 228 229 232 236 239 239 238 238 240 240 237 235 238 247 256 261 268 272 273 275 278 282 286 290 293 297 303 308 312 315 322 328 327 318 309 299 289 278 269 262 258 256 257 258 256 253 249 245 242 241 242 243 245 247 248 248 249 249 250 250 251 251 252 253 254 256 257
224 225 221 216 211 209 208 208 211 213 213 214 216 218 220 222 223 224 227 229 230 231 232 232 232 233 236 237 237 240 243 248 253 256 262 268 269 271 272 274 277 282 286 290 292 294 298 301 304 311 319 322 320 314 304 292 280 271 263 258 257 258 259 257 254 250 247 244 243 243 244 246 247 249 249 251 251 251 252 252 252 253 254 256 258
228 228 228 224 217 210 207 210 214 216 216 216 216 218 221 222 223 226 229 231 232 232 231 231 232 232 234 235 237 243 247 250 250 250 256 263 266 267 268 269 273 278 281 284 286 285 286 288 290 294 299 305 311 314 311 304 293 280 270 264 261 261 261 261 259 255 251 248 246 245 244 245 246 247 248 249 250 252 253 254 254 255 255 257 259
232 231 231 231 226 218 213 213 216 217 218 218 217 217 220 225 230 233 235 235 235 236 235 235 237 238 237 235 236 240 245 248 245 246 252 258 262 263 264 266 270 273 275 279 282 283 282 279 279 282 285 287 291 296 300 302 300 293 282 274 269 266 265 265 264 262 257 253 250 248 246 246 246 247 248 248 250 251 252 254 255 255 256 258 260
228 228 227 229 230 226 223 222 221 220 220 221 222 224 228 233 235 236 236 235 235 235 236 237 240 241 239 238 238 241 244 245 243 243 247 252 257 260 262 265 266 266 270 275 279 282 282 278 274 274 274 276 279 282 284 286 289 291 292 288 283 277 273 271 270 268 265 261 258 255 252 250 249 249 250 250 251 252 252 254 255 255 256 257 259
227 227 227 227 229 230 229 229 228 227 226 226 229 232 235 237 237 236 234 233 234 235 236 238 239 238 236 237 240 242 242 242 241 242 245 250 255 259 262 263 261 261 265 269 274 280 281 278 273 270 269 270 272 275 278 279 280 282 285 288 289 286 285 287 285 281 275 270 266 263 261 258 256 255 255 255 255 255 255 256 256 256 255 255 256
229 230 232 232 232 233 233 234 234 233 232 231 232 234 235 236 236 234 232 233 235 237 239 242 242 239 237 239 241 241 240 239 239 241 245 250 254 257 259 260 259 259 262 265 269 274 276 276 274 271 269 268 269 271 273 275 277 278 280 283 285 286 293 304 302 291 284 276 270 266 264 262 261 260 260 260 259 259 259 258 258 258 257 256 257
234 234 235 237 237 237 237 239 239 240 239 237 235 235 235 236 235 234 232 233 234 236 239 241 242 241 241 242 242 240 238 238 239 241 244 248 251 254 256 258 260 261 259 260 263 267 270 273 275 274 271 269 267 269 270 271 274 277 279 280 280 282 289 295 290 282 280 279 276 272 267 264 262 260 260 260 261 261 261 261 260 259 258 258 258
238 237 237 238 240 240 241 242 242 243 243 242 240 238 237 236 236 236 235 234 233 233 235 238 240 242 244 245 245 243 240 239 241 243 246 247 249 251 253 255 257 256 255 257 261 265 267 271 273 273 271 267 265 267 269 269 271 273 275 275 274 275 278 279 279 279 280 282 284 285 282 277 271 267 265 265 264 263 263 263 263 261 259 258 259
239 239 239 240 241 242 244 245 245 244 244 244 244 243 241 239 238 238 238 237 235 234 235 237 239 242 244 245 245 244 243 243 245 247 249 249 250 251 252 253 255 256 257 260 263 265 267 269 270 270 268 265 264 265 267 268 268 268 270 272 272 273 272 273 276 281 284 286 288 289 289 287 282 278 276 276 275 272 268 266 265 263 261 260 260
241 239 239 240 241 243 244 245 246 245 244 244 245 246 245 244 242 240 240 240 239 237 237 237 237 238 241 243 243 243 244 246 248 249 250 252 254 254 253 254 256 258 260 262 264 265 266 267 267 267 267 266 265 264 264 265 265 266 269 271 272 272 270 268 271 276 281 285 286 285 285 286 285 284 282 282 283 282 277 271 267 265 263 261 261
243 243 242 241 241 241 242 244 245 245 245 245 245 246 246 247 246 244 243 242 241 240 239 238 237 235 236 238 239 240 242 244 246 248 250 253 255 256 256 256 257 257 259 261 262 263 265 265 265 264 265 268 268 266 265 264 264 266 268 269 269 270 268 266 265 270 276 280 281 281 282 284 284 284 284 284 284 283 279 274 271 270 268 266 265
243 244 244 244 243 242 242 243 243 244 244 244 244 245 246 247 248 248 247 246 245 243 241 240 239 237 236 236 238 239 242 243 245 247 249 250 251 253 255 255 255 256 258 260 261 262 264 265 263 262 264 269 270 267 265 263 263 264 265 266 267 268 268 267 265 268 272 275 276 276 278 280 283 285 287 286 284 281 278 274 271 270 270 270 271
245 244 244 245 245 245 244 244 243 243 243 243 243 244 244 246 247 248 249 248 248 247 246 245 242 240 239 239 241 242 244 245 246 248 250 250 249 250 251 253 256 258 260 261 262 263 263 262 260 261 263 268 270 270 267 265 264 263 263 264 265 266 267 268 267 267 269 272 273 274 274 277 280 284 285 286 284 281 279 276 271 267 266 268 272
244 244 244 244 245 245 245 245 244 244 243 243 243 243 244 244 246 247 248 248 248 248 248 247 246 244 243 243 243 244 246 247 247 248 249 250 251 251 252 254 256 259 261 262 264 263 260 258 258 259 261 264 268 270 270 269 267 265 264 264 265 266 267 269 269 269 270 272 274 275 275 276 278 279 281 284 284 282 280 278 275 271 268 269 272
237 240 241 242 242 244 245 246 246 246 245 244 243 243 243 244 245 246 247 248 248 248 248 249 248 247 246 246 245 246 247 248 249 249 249 250 252 254 255 257 258 260 262 263 263 263 261 259 258 259 260 262 266 268 269 269 269 268 267 266 265 265 267 270 271 272 272 273 275 276 276 276 276 277 278 281 282 280 279 279 278 276 274 273 274
234 238 239 240 240 242 243 245 246 247 247 246 245 244 244 244 244 245 246 246 247 248 248 249 251 251 250 250 250 249 250 251 252 252 252 252 253 255 257 259 261 262 263 264 264 264 263 262 261 260 260 261 263 265 266 267 268 269 269 268 267 266 266 269 272 273 274 274 275 275 275 276 276 276 277 278 278 278 277 278 277 276 275 275 275
242 241 242 242 243 243 243 244 245 247 248 248 248 246 245 245 244 244 245 245 245 245 245 245 247 249 251 251 252 252 253 254 255 255 255 255 255 256 257 259 261 262 263 263 264 264 264 264 263 262 262 262 263 264 265 267 268 270 271 271 270 268 268 269 272 274 275 275 274 274 274 275 275 275 276 277 277 277 278 278 278 276 275 275 275
250 248 245 245 246 247 248 247 247 248 250 250 250 250 248 247 246 246 245 245 246 246 245 245 245 246 247 249 250 250 251 253 254 255 256 257 257 258 258 259 259 260 260 261 262 263 263 263 263 263 263 263 264 265 266 267 268 270 271 271 270 268 268 269 270 273 275 275 274 274 274 274 274 274 275 276 277 277 277 278 278 277 275 274 274
256 255 251 249 249 250 252 252 251 252 252 253 254 254 253 251 249 249 248 248 247 248 248 248 247 247 248 249 249 250 250 250 250 250 251 252 254 256 258 259 260 261 261 261 261 261 262 262 262 263 263 263 264 264 265 266 268 269 270 270 269 268 268 269 269 271 272 273 274 275 274 274 273 273 273 274 274 275 276 276 277 277 276 274 273
257 259 257 255 254 255 256 257 258 258 258 259 259 259 258 256 254 252 251 251 251 251 251 251 251 251 251 251 251 252 252 251 250 250 249 249 249 251 253 255 257 260 261 262 262 262 262 262 263 263 264 264 265 265 265 266 267 268 268 269 269 269 270 270 271 272 273 273 274 275 275 274 272 272 272 272 272 272 273 274 276 277 276 274 273
257 259 259 258 257 257 258 260 262 263 263 263 265 265 263 261 259 257 255 254 254 254 254 254 255 255 255 255 254 254 255 255 254 253 252 251 251 252 254 255 255 256 258 259 260 261 261 262 262 263 264 265 265 266 265 265 266 266 266 267 267 268 269 270 271 272 272 273 273 274 274 273 272 271 270 271 271 271 272 273 274 275 275 274 273
256 256 257 258 258 258 259 261 264 266 265 264 265 266 265 263 260 259 258 258 257 257 257 257 258 258 258 258 258 257 257 257 257 257 256 256 255 255 256 257 257 257 257 258 259 259 260 260 261 261 262 263 264 264 265 265 265 266 266 267 267 268 269 271 271 272 272 272 273 273 273 273 272 272 271 271 271 271 272 272 273 273 273 273 273
252 253 254 256 257 257 258 261 265 267 266 264 264 264 264 262 261 260 261 261 261 260 260 259 260 260 261 261 261 260 260 260 259 259 259 259 260 260 259 259 260 260 260 260 260 261 261 262 262 262 263 263 264 264 265 265 266 266 267 267 268 268 269 270 271 271 271 271 272 272 272 272 272 272 271 271 271 271 271 271 272 272 272 272 272
249 250 252 254 256 256 257 260 265 266 265 263 261 261 262 263 263 265 266 266 266 265 265 263 263 262 262 262 262 262 262 262 262 262 262 262 262 263 263 263 264 264 264 264 264 264 264 264 265 265 265 266 266 266 267 267 267 268 268 268 268 269 269 269 270 270 270 270 270 271 270 270 271 271 271 271 271 271 271 270 270 270 271 271 271
249 251 252 253 254 255 256 260 264 265 263 260 260 261 264 267 270 272 273 273 273 273 273 272 270 268 267 265 264 263 263 263 263 263 264 264 264 265 265 266 266 267 267 268 268 268 268 268 268 268 268 268 268 269 269 269 269 270 270 270 270 270 271 271 271 271 271 271 271 271 271 271 271 271 271 271 271 270 270 270 270 269 269 269 269
251 252 254 253 253 254 256 258 261 263 262 261 263 267 271 274 275 277 278 279 280 280 279 278 277 275 273 271 269 267 266 265 265 265 265 266 267 267 268 268 269 269 269 269 269 269 270 270 270 270 270 270 271 271 271 271 271 271 271 271 272 272 272 272 272 273 273 273 273 273 273 273 272 272 272 272 271 271 271 270 270 270 269 269 269
254 253 254 253 252 253 255 256 256 259 262 264 267 273 277 278 278 278 279 280 281 281 281 281 280 279 277 275 273 272 270 269 269 269 269 270 270 271 272 272 272 272 271 271 271 271 271 271 271 272 272 272 272 272 273 273 273 273 273 273 273 273 272 273 273 273 273 273 273 273 273 272 272 272 272 272 272 272 271 271 271 271 271 271 271
259 256 254 254 254 254 255 255 255 256 261 265 268 273 277 277 276 276 277 278 280 282 284 285 284 281 279 277 275 274 274 274 274 274 273 274 275 276 276 276 276 276 275 274 274 273 273 273 273 273 273 274 274 274 274 274 275 275 275 274 274 274 274 274 273 273 273 272 272 272 272 272 272 272 272 272 272 272 272 272 273 273 273 273 273
262 261 258 256 255 256 256 255 254 255 259 262 265 269 274 275 273 272 272 275 279 283 287 289 289 286 282 279 277 276 276 276 276 277 278 278 278 278 279 279 279 279 278 277 277 276 275 275 274 274 273 274 274 274 274 275 275 275 276 276 276 275 275 275 275 274 274 273 273 273 273 273 273 272 272 272 273 274 275 276 277 277 278 278 278
261 265 264 260 258 257 255 253 252 253 255 257 260 265 271 273 271 269 270 274 279 284 289 292 293 292 289 284 281 279 278 278 278 279 280 281 281 281 281 282 282 282 282 281 280 278 277 276 276 276 276 276 277 277 277 278 278 278 278 278 277 277 276 276 275 275 274 274 274 273 273 273 273 274 275 276 278 280 281 282 282 282 282 282 282
257 263 265 262 259 257 255 252 250 250 252 255 260 265 270 272 271 269 270 274 279 285 290 294 296 297 295 292 289 285 284 284 285 286 288 289 289 288 288 287 287 287 286 285 284 283 282 282 281 281 282 282 283 283 283 283 283 282 282 282 281 280 279 278 277 276 275 275 275 275 275 276 277 279 280 282 283 283 283 283 283 283 283 284 284
253 258 263 262 257 254 251 249 248 250 253 257 260 264 268 270 268 266 268 274 280 286 291 296 300 304 305 304 302 299 296 296 297 298 299 299 299 297 295 293 291 289 287 286 286 287 288 289 290 290 291 290 289 289 288 288 287 286 285 284 284 283 282 281 280 280 279 278 279 279 280 281 282 283 284 284 283 283 283 283 284 285 286 287 288
250 253 258 259 255 251 248 247 248 250 255 259 262 264 265 263 261 261 266 274 281 287 292 299 307 315 320 321 320 317 314 311 309 308 307 307 305 303 300 296 292 289 288 287 288 289 292 295 297 297 297 296 295 295 295 295 294 293 291 289 288 286 285 285 284 284 283 283 283 282 282 282 282 282 281 282 283 284 285 286 287 289 291 293 294
249 249 251 253 252 249 248 248 249 252 256 258 259 257 255 253 253 258 266 273 277 282 287 294 302 307 312 316 318 319 319 318 315 313 312 311 309 308 305 300 295 292 290 288 289 291 295 299 301 302 302 302 301 302 302 302 303 302 300 298 295 292 290 289 288 286 285 283 282 280 280 280 280 281 282 283 284 285 286 288 290 292 294 297 299
246 245 245 247 248 248 248 249 251 253 254 254 252 249 248 250 255 261 267 272 275 278 282 288 293 297 300 304 307 309 311 311 311 310 309 309 309 309 307 304 299 296 292 289 288 291 296 300 302 304 304 305 305 305 304 304 305 305 305 304 301 297 294 291 289 287 285 284 283 282 282 283 283 284 284 285 285 286 287 288 290 292 294 297 300
244 243 243 244 246 247 248 248 249 250 249 248 247 247 250 254 260 264 268 271 275 279 283 287 291 294 296 299 301 302 303 304 305 305 305 305 305 306 305 303 300 297 293 289 288 290 294 297 300 302 303 304 304 304 305 304 304 304 303 302 300 297 293 291 289 288 287 287 287 286 286 286 286 286 287 288 288 288 288 289 289 290 292 294 297
244 243 243 243 243 244 245 245 244 243 243 245 247 250 254 259 263 267 270 273 276 280 283 286 289 291 293 295 296 297 297 298 299 301 303 303 303 303 302 301 299 296 293 291 289 290 292 294 296 298 299 300 300 301 302 303 303 302 301 300 298 295 292 290 288 288 288 288 289 289 289 289 289 289 290 291 292 293 293 292 292 292 292 294 296
243 242 242 243 243 243 244 243 242 240 241 245 249 253 258 262 266 269 272 275 278 280 283 284 286 288 289 290 291 292 292 293 294 297 300 302 302 301 300 300 299 297 295 292 291 290 290 291 292 294 294 295 296 296 298 299 300 300 299 298 296 294 291 289 288 288 288 289 289 290 290 290 291 291 291 292 294 295 296 297 297 296 296 296 296
240 240 241 243 244 244 244 244 244 245 246 249 253 256 259 263 266 269 272 274 277 279 281 282 284 285 286 286 287 288 289 290 291 293 295 299 300 299 298 298 298 297 296 296 295 294 292 291 289 289 289 290 290 291 292 294 295 296 296 296 295 292 290 288 287 287 287 288 288 289 289 290 291 291 292 292 294 295 296 297 298 299 299 298 297
Height
10898 10903 10908 10912 10915 10917 10920 10923 10926 10929 10932 10934 10936 10937 10939 10940 10940 10941 10942 10942 10943 10943 10943 10943 10943 10944 10944 10944 10943 10942 10941 10941 10941 10940 10939 10939 10937 10936 10935 10934 10935 10935 10936 10936 10937 10938 10939 10939 10940 10941 10941 10942 10943 10944 10946 10947 10949 10950 10952 10953 10954 10955 10956 10958 10959 10961 10962 10964 10965 10966 10968 10969 10971 10972 10973 10974 10975 10976 10976 10976 10977 10977 10978 10978 10978
10895 10900 10904 10908 10911 10914 10917 10920 10922 10925 10928 10930 10932 10934 10935 10936 10937 10938 10938 10939 10940 10940 10940 10940 10941 10941 10942 10942 10942 10941 10940 10940 10940 10939 10939 10938 10937 10936 10935 10934 10934 10934 10934 10935 10935 10936 10937 10937 10938 10938 10939 10939 10940 10941 10942 10944 10945 10947 10948 10950 10951 10952 10953 10955 10956 10957 10959 10960 10962 10963 10965 10966 10968 10969 10970 10972 10973 10973 10974 10974 10974 10975 10975 10975 10976
10892 10897 10901 10904 10907 10910 10914 10916 10919 10922 10925 10927 10929 10930 10932 10933 10934 10934 10935 10936 10937 10937 10938 10938 10939 10939 10940 10941 10941 10941 10940 10939 10939 10939 10938 10938 10937 10936 10935 10934 10933 10933 10933 10933 10933 10934 10934 10935 10935 10936 10936 10937 10937 10938 10939 10940 10942 10944 10945 10946 10947 10949 10950 10951 10953 10954 10955 10957 10959 10960 10961 10963 10965 10966 10967 10969 10970 10970 10971 10971 10972 10972 10973 10973 10973
10889 10893 10896 10900 10903 10906 10909 10912 10915 10918 10921 10924 10926 10928 10929 10930 10930 10931 10932 10932 10933 10935 10936 10937 10936 10936 10938 10940 10940 10940 10940 10939 10939 10938 10938 10937 10937 10936 10935 10934 10933 10933 10932 10932 10932 10932 10932 10932 10933 10933 10933 10933 10934 10934 10935 10936 10938 10940 10941 10942 10944 10945 10946 10947 10949 10950 10952 10953 10955 10956 10958 10960 10961 10962 10964 10965 10966 10967 10968 10969 10969 10969 10970 10970 10971
10885 10888 10892 10895 10899 10902 10905 10908 10911 10914 10918 10920 10922 10924 10926 10926 10927 10928 10929 10930 10931 10934 10935 10935 10935 10936 10938 10939 10939 10939 10939 10938 10938 10938 10937 10937 10936 10936 10935 10935 10934 10933 10932 10931 10931 10930 10930 10930 10930 10930 10930 10930 10931 10931 10932 10933 10934 10935 10937 10939 10940 10941 10942 10943 10945 10947 10948 10950 10951 10953 10954 10956 10958 10959 10960 10961 10963 10964 10965 10966 10966 10966 10967 10968 10968
10881 10885 10888 10891 10894 10898 10901 10904 10907 10911 10914 10916 10919 10921 10922 10923 10925 10926 10927 10928 10930 10931 10932 10932 10933 10935 10938 10938 10937 10937 10937 10937 10938 10937 10937 10936 10936 10935 10935 10934 10934 10933 10932 10931 10930 10929 10929 10929 10929 10928 10928 10928 10929 10929 10929 10930 10930 10931 10933 10935 10936 10938 10939 10940 10942 10943 10944 10946 10948 10949 10951 10953 10954 10955 10956 10958 10959 10960 10962 10962 10962 10963 10964 10965 10964
10878 10881 10885 10888 10891 10895 10898 10901 10904 10907 10910 10912 10915 10917 10919 10920 10922 10923 10925 10927 10929 10929 10929 10930 10932 10934 10935 10936 10936 10935 10935 10936 10937 10936 10936 10936 10935 10935 10934 10934 10933 10933 10932 10931 10929 10929 10928 10928 10928 10927 10926 10926 10927 10927 10927 10927 10927 10928 10929 10931 10932 10934 10935 10937 10938 10939 10941 10943 10944 10946 10948 10949 10950 10951 10953 10954 10955 10957 10958 10958 10958 10960 10960 10960 10960
10874 10878 10881 10884 10888 10892 10894 10897 10901 10904 10907 10909 10912 10914 10916 10918 10920 10921 10924 10926 10927 10927 10927 10929 10931 10932 10932 10933 10934 10934 10934 10935 10935 10935 10935 10935 10935 10934 10934 10933 10933 10932 10931 10930 10929 10928 10927 10927 10926 10926 10925 10925 10925 10925 10925 10925 10925 10925 10926 10927 10929 10930 10931 10933 10934 10936 10937 10939 10940 10942 10944 10945 10946 10948 10949 10950 10951 10953 10954 10953 10954 10955 10955 10955 10955
10871 10874 10878 10882 10885 10888 10891 10894 10898 10900 10903 10906 10909 10911 10914 10916 10918 10920 10922 10925 10925 10924 10924 10926 10928 10929 10930 10931 10932 10932 10932 10933 10933 10933 10933 10933 10933 10933 10933 10932 10932 10931 10930 10929 10928 10928 10927 10926 10925 10924 10924 10923 10923 10923 10923 10922 10922 10923 10923 10924 10925 10926 10927 10929 10930 10932 10933 10935 10936 10938 10940 10941 10942 10944 10945 10947 10948 10949 10949 10949 10949 10950 10950 10950 10950
10868 10872 10875 10878 10881 10884 10887 10891 10894 10896 10899 10903 10905 10909 10912 10914 10915 10917 10919 10921 10922 10920 10921 10923 10925 10927 10928 10928 10929 10929 10930 10931 10931 10931 10932 10932 10932 10932 10932 10931 10930 10930 10929 10928 10927 10926 10925 10925 10923 10922 10922 10921 10921 10920 10920 10920 10920 10920 10920 10921 10921 10922 10923 10924 10926 10927 10929 10930 10932 10934 10935 10936 10937 10940 10941 10942 10944 10944 10945 10945 10944 10944 10945 10945 10946
10866 10868 10871 10874 10877 10880 10883 10887 10891 10894 10897 10900 10903 10906 10909 10910 10911 10912 10914 10915 10917 10916 10917 10918 10921 10923 10924 10925 10925 10926 10927 10928 10929 10929 10929 10930 10930 10930 10929 10929 10929 10928 10927 10926 10925 10925 10924 10923 10922 10921 10920 10919 10918 10918 10917 10917 10916 10916 10917 10917 10918 10918 10919 10920 10921 10923 10924 10926 10927 10929 10930 10931 10933 10935 10936 10938 10939 10939 10939 10939 10939 10939 10940 10940 10940
10863 10865 10868 10870 10874 10877 10880 10883 10887 10890 10893 10896 10898 10900 10901 10902 10905 10907 10909 10911 10913 10913 10913 10915 10917 10919 10920 10920 10921 10923 10925 10926 10926 10927 10927 10927 10927 10927 10927 10927 10926 10926 10925 10924 10924 10923 10923 10922 10921 10920 10919 10917 10917 10916 10915 10915 10914 10914 10914 10914 10915 10915 10915 10916 10916 10918 10919 10920 10922 10924 10925 10926 10929 10931 10931 10933 10934 10933 10933 10933 10933 10934 10934 10934 10934
10860 10862 10864 10867 10870 10874 10877 10879 10881 10884 10887 10890 10892 10894 10895 10896 10899 10901 10904 10907 10908 10909 10910 10911 10912 10913 10914 10915 10917 10919 10922 10923 10924 10924 10924 10924 10924 10924 10924 10924 10923 10923 10923 10923 10922 10921 10921 10920 10920 10919 10918 10917 10915 10914 10913 10912 10912 10911 10911 10911 10911 10911 10912 10912 10912 10913 10914 10915 10917 10918 10920 10923 10924 10925 10926 10927 10926 10926 10927 10927 10928 10928 10928 10928 10928
10857 10859 10861 10864 10867 10870 10873 10875 10876 10880 10883 10886 10888 10890 10892 10894 10896 10898 10901 10902 10903 10905 10906 10907 10908 10909 10909 10912 10914 10916 10918 10920 10920 10920 10920 10920 10921 10920 10920 10920 10921 10921 10921 10920 10920 10919 10918 10918 10918 10917 10916 10915 10914 10913 10912 10911 10910 10909 10908 10908 10908 10908 10909 10909 10909 10910 10911 10911 10912 10913 10915 10918 10918 10918 10920 10920 10919 10920 10921 10922 10922 10922 10923 10923 10923
10855 10857 10859 10861 10864 10867 10869 10871 10873 10876 10879 10882 10884 10886 10888 10890 10892 10894 10897 10898 10899 10901 10902 10903 10904 10906 10907 10909 10911 10912 10914 10915 10916 10916 10917 10917 10916 10916 10916 10917 10917 10917 10918 10917 10917 10917 10916 10915 10915 10915 10914 10914 10913 10912 10911 10909 10908 10907 10906 10905 10905 10905 10906 10906 10906 10907 10907 10908 10908 10908 10910 10912 10911 10912 10913 10913 10913 10915 10916 10915 10915 10916 10918 10919 10918
10853 10855 10857 10858 10860 10863 10865 10867 10869 10872 10875 10877 10880 10882 10884 10886 10888 10890 10892 10894 10895 10896 10897 10899 10901 10902 10904 10905 10907 10908 10910 10911 10912 10912 10912 10912 10912 10911 10912 10913 10913 10913 10914 10914 10914 10914 10913 10913 10912 10912 10912 10911 10911 10910 10909 10908 10907 10906 10904 10904 10903 10903 10903 10903 10903 10903 10904 10904 10904 10904 10905 10906 10906 10906 10906 10907 10908 10909 10910 10909 10907 10909 10913 10914 10910
10850 10852 10854 10856 10858 10859 10861 10863 10865 10868 10871 10873 10875 10877 10879 10882 10884 10886 10888 10890 10891 10891 10893 10895 10897 10898 10899 10901 10903 10904 10906 10906 10907 10907 10908 10909 10908 10907 10908 10909 10909 10909 10910 10910 10910 10910 10910 10910 10909 10909 10909 10908 10908 10908 10907 10906 10905 10904 10903 10902 10902 10901 10901 10901 10901 10901 10901 10901 10900 10901 10901 10901 10902 10902 10902 10902 10903 10903 10903 10902 10900 10904 10907 10905 10900
10846 10849 10851 10853 10855 10857 10858 10859 10861 10864 10866 10869 10871 10873 10875 10877 10880 10882 10884 10886 10887 10887 10888 10890 10893 10894 10896 10897 10898 10900 10901 10901 10902 10903 10905 10905 10904 10904 10905 10905 10905 10906 10907 10907 10906 10906 10906 10906 10906 10906 10906 10906 10906 10905 10905 10904 10903 10902 10901 10901 10900 10899 10899 10899 10899 10898 10898 10898 10897 10897 10896 10896 10897 10897 10897 10897 10897 10897 10896 10894 10894 10898 10899 10896 10894
10842 10845 10847 10849 10852 10854 10855 10857 10858 10860 10862 10864 10866 10868 10870 10872 10875 10877 10879 10881 10883 10884 10885 10886 10888 10890 10892 10893 10894 10895 10896 10897 10898 10899 10901 10900 10899 10900 10900 10900 10901 10903 10903 10901 10901 10901 10901 10902 10902 10902 10902 10903 10903 10902 10902 10901 10900 10900 10899 10899 10897 10897 10897 10897 10897 10896 10895 10894 10894 10893 10892 10892 10892 10891 10891 10891 10891 10891 10889 10887 10888 10891 10891 10888 10887
10838 10840 10843 10845 10847 10850 10852 10854 10855 10857 10858 10859 10861 10863 10865 10867 10870 10872 10874 10876 10879 10880 10881 10882 10884 10885 10887 10889 10890 10891 10892 10892 10893 10894 10895 10895 10895 10896 10895 10895 10896 10897 10895 10895 10896 10897 10897 10898 10899 10899 10899 10898 10898 10898 10898 10897 10896 10896 10896 10895 10894 10894 10894 10894 10893 10893 10892 10891 10890 10889 10889 10888 10887 10886 10885 10885 10885 10885 10883 10882 10882 10884 10884 10882 10880
10833 10836 10838 10840 10842 10845 10847 10849 10851 10853 10854 10855 10857 10858 10860 10862 10864 10866 10868 10871 10873 10875 10876 10877 10879 10880 10882 10884 10885 10886 10886 10886 10887 10888 10888 10889 10890 10891 10890 10890 10890 10890 10889 10891 10892 10893 10893 10894 10895 10894 10894 10894 10894 10894 10894 10894 10893 10891 10891 10891 10891 10890 10890 10890 10890 10889 10888 10888 10887 10886 10885 10884 10883 10882 10881 10880 10880 10879 10878 10877 10877 10877 10877 10875 10874
10828 10830 10833 10835 10837 10839 10841 10844 10846 10847 10849 10851 10852 10854 10855 10857 10859 10861 10863 10865 10868 10869 10871 10872 10874 10875 10877 10879 10879 10880 10880 10880 10881 10882 10882 10883 10885 10885 10884 10885 10885 10885 10885 10886 10887 10888 10888 10889 10890 10890 10889 10889 10889 10889 10889 10889 10888 10887 10887 10887 10887 10887 10887 10886 10886 10885 10885 10884 10883 10882 10881 10880 10880 10879 10878 10877 10876 10876 10875 10873 10871 10871 10870 10869 10868
10823 10825 10827 10829 10832 10834 10836 10838 10840 10842 10844 10845 10847 10849 10850 10852 10853 10855 10857 10859 10861 10863 10865 10866 10868 10870 10872 10873 10873 10874 10874 10875 10876 10877 10878 10879 10879 10880 10881 10881 10880 10879 10879 10879 10881 10881 10882 10883 10884 10884 10884 10884 10884 10884 10884 10884 10884 10883 10883 10882 10882 10882 10882 10882 10881 10881 10881 10880 10878 10877 10876 10875 10875 10874 10873 10873 10872 10872 10870 10869 10867 10866 10864 10863 10863
10819 10821 10822 10824 10826 10828 10830 10832 10834 10836 10838 10840 10842 10843 10845 10847 10849 10850 10852 10854 10855 10857 10859 10861 10862 10864 10865 10865 10867 10868 10868 10869 10871 10872 10873 10874 10874 10877 10878 10875 10872 10872 10873 10873 10874 10875 10876 10877 10878 10878 10879 10879 10879 10879 10879 10879 10879 10879 10878 10878 10877 10877 10877 10877 10877 10877 10876 10875 10874 10872 10871 10870 10870 10869 10869 10868 10868 10867 10865 10864 10863 10862 10860 10859 10858
10816 10817 10818 10820 10821 10823 10825 10827 10829 10831 10833 10834 10836 10838 10840 10842 10844 10845 10847 10848 10849 10851 10853 10855 10856 10858 10858 10859 10860 10861 10861 10863 10865 10866 10867 10867 10868 10870 10870 10867 10866 10866 10867 10867 10868 10869 10870 10871 10872 10872 10873 10873 10873 10873 10873 10873 10874 10873 10873 10873 10873 10872 10872 10872 10872 10871 10870 10869 10868 10867 10866 10864 10864 10864 10863 10862 10862 10861 10860 10860 10859 10858 10856 10855 10854
10813 10814 10815 10816 10817 10819 10820 10822 10824 10826 10828 10829 10831 10833 10835 10836 10838 10840 10841 10843 10844 10845 10847 10848 10849 10851 10852 10853 10854 10855 10854 10855 10858 10859 10859 10860 10861 10861 10861 10860 10860 10860 10860 10861 10862 10862 10863 10864 10865 10866 10866 10867 10867 10868 10868 10868 10868 10868 10867 10867 10867 10867 10867 10867 10866 10866 10864 10863 10862 10862 10860 10859 10859 10858 10857 10857 10856 10854 10853 10854 10854 10852 10851 10851 10851
10810 10811 10812 10813 10814 10815 10816 10817 10819 10821 10823 10824 10826 10827 10829 10831 10833 10835 10836 10837 10839 10840 10842 10843 10843 10844 10845 10847 10848 10848 10847 10848 10850 10851 10853 10854 10854 10852 10852 10852 10852 10853 10854 10854 10855 10855 10856 10857 10858 10858 10859 10860 10861 10861 10861 10861 10862 10861 10861 10862 10861 10861 10861 10861 10860 10860 10858 10857 10857 10856 10854 10852 10852 10852 10851 10851 10850 10848 10847 10848 10848 10846 10845 10846 10846
10808 10808 10809 10810 10811 10812 10812 10813 10815 10816 10818 10819 10821 10822 10824 10825 10827 10829 10830 10831 10833 10834 10836 10837 10837 10838 10839 10840 10841 10842 10842 10842 10843 10845 10847 10848 10847 10846 10845 10845 10845 10846 10846 10847 10847 10848 10848 10849 10850 10851 10851 10852 10853 10854 10854 10854 10855 10855 10855 10855 10855 10854 10854 10854 10854 10853 10851 10851 10851 10849 10846 10845 10845 10844 10843 10844 10843 10841 10839 10841 10842 10840 10838 10838 10840
10806 10807 10807 10808 10808 10809 10810 10810 10811 10812 10813 10814 10816 10817 10818 10819 10821 10822 10824 10825 10826 10827 10829 10830 10831 10832 10832 10833 10834 10835 10835 10835 10836 10837 10838 10839 10839 10839 10839 10838 10838 10839 10839 10839 10839 10840 10840 10841 10842 10843 10844 10844 10845 10846 10847 10847 10847 10847 10847 10847 10847 10846 10846 10846 10845 10844 10844 10844 10843 10841 10839 10838 10837 10836 10835 10836 10835 10833 10832 10834 10835 10833 10831 10831 10832
10803 10804 10805 10806 10806 10806 10807 10807 10808 10809 10810 10810 10811 10812 10813 10814 10815 10816 10817 10819 10820 10821 10822 10823 10824 10825 10825 10826 10827 10828 10828 10828 10828 10829 10830 10830 10830 10830 10831 10831 10831 10831 10831 10831 10831 10832 10833 10833 10834 10835 10836 10836 10837 10837 10838 10838 10838 10837 10837 10837 10838 10838 10838 10838 10837 10836 10835 10835 10835 10833 10832 10831 10829 10828 10827 10827 10827 10824 10823 10824 10825 10825 10823 10823 10822
10801 10802 10803 10803 10803 10803 10804 10804 10805 10806 10806 10807 10808 10808 10809 10810 10810 10811 10812 10812 10813 10814 10815 10816 10817 10817 10818 10819 10820 10821 10821 10821 10822 10822 10822 10822 10822 10822 10822 10822 10822 10823 10823 10823 10823 10824 10824 10825 10825 10826 10827 10827 10828 10828 10828 10828 10828 10828 10827 10827 10828 10828 10829 10828 10828 10827 10826 10826 10825 10825 10823 10822 10821 10820 10818 10818 10818 10816 10814 10814 10815 10815 10815 10814 10814
10798 10799 10800 10800 10801 10801 10801 10801 10802 10802 10803 10803 10804 10804 10805 10805 10806 10806 10806 10807 10807 10808 10809 10809 10810 10811 10811 10812 10812 10813 10813 10814 10814 10815 10815 10815 10815 10814 10814 10814 10814 10814 10814 10815 10815 10815 10815 10816 10816 10817 10817 10817 10818 10818 10818 10818 10817 10817 10817 10817 10817 10817 10818 10817 10817 10817 10816 10815 10815 10815 10814 10813 10812 10811 10810 10809 10808 10807 10806 10804 10804 10805 10805 10805 10804
10794 10795 10796 10796 10797 10797 10798 10798 10798 10799 10799 10799 10800 10800 10800 10800 10801 10801 10802 10802 10802 10802 10803 10803 10804 10804 10805 10805 10805 10806 10806 10806 10806 10807 10807 10807 10807 10807 10807 10807 10807 10806 10806 10806 10806 10806 10806 10807 10807 10807 10808 10808 10808 10808 10808 10807 10807 10807 10806 10806 10805 10805 10806 10806 10806 10806 10805 10805 10804 10804 10803 10803 10802 10801 10800 10799 10798 10798 10797 10795 10794 10794 10794 10794 10794
10788 10789 10790 10791 10792 10793 10793 10794 10794 10795 10795 10795 10795 10795 10795 10795 10796 10796 10796 10797 10797 10797 10798 10798 10798 10798 10798 10798 10798 10798 10799 10799 10798 10798 10798 10798 10798 10798 10798 10798 10798 10798 10798 10798 10798 10798 10798 10798 10798 10798 10798 10798 10798 10798 10797 10797 10797 10797 10796 10796 10795 10794 10794 10795 10795 10795 10794 10794 10794 10793 10792 10792 10791 10790 10789 10788 10787 10787 10787 10785 10783 10783 10783 10783 10783
10781 10782 10784 10785 10786 10787 10788 10789 10790 10790 10790 10790 10790 10790 10790 10790 10790 10791 10791 10791 10791 10792 10792 10792 10793 10792 10792 10791 10791 10791 10791 10790 10790 10790 10790 10789 10789 10789 10789 10789 10789 10789 10789 10789 10789 10789 10789 10789 10788 10788 10788 10788 10787 10787 10787 10787 10787 10786 10785 10785 10784 10783 10783 10782 10783 10783 10783 10782 10782 10781 10781 10780 10780 10779 10778 10777 10776 10776 10775 10774 10773 10772 10771 10771 10771
10774 10776 10778 10779 10780 10781 10783 10784 10785 10785 10785 10785 10786 10786 10786 10786 10786 10786 10786 10786 10786 10786 10787 10787 10787 10787 10786 10785 10785 10784 10784 10783 10783 10782 10782 10781 10781 10780 10780 10780 10780 10780 10779 10779 10779 10779 10778 10778 10778 10778 10777 10777 10777 10776 10776 10776 10775 10775 10774 10773 10772 10772 10771 10771 10770 10771 10771 10770 10770 10769 10769 10769 10768 10766 10766 10765 10764 10764 10763 10761 10760 10760 10759 10758 10758
10769 10770 10772 10774 10775 10776 10778 10779 10780 10780 10780 10781 10781 10782 10782 10782 10782 10782 10782 10781 10781 10781 10781 10782 10782 10781 10780 10779 10778 10778 10777 10777 10776 10776 10775 10774 10773 10773 10773 10772 10772 10772 10771 10770 10770 10769 10769 10768 10768 10767 10767 10766 10766 10765 10765 10764 10764 10763 10762 10762 10761 10760 10759 10759 10758 10758 10758 10758 10758 10757 10756 10756 10755 10754 10754 10753 10752 10751 10750 10748 10747 10746 10746 10745 10745
10763 10765 10767 10768 10770 10771 10773 10774 10775 10775 10776 10776 10777 10777 10778 10778 10778 10778 10777 10777 10776 10776 10776 10776 10776 10775 10774 10773 10772 10771 10771 10770 10770 10769 10769 10768 10767 10767 10766 10766 10765 10764 10764 10763 10762 10761 10761 10760 10759 10758 10757 10757 10756 10755 10755 10754 10753 10753 10752 10751 10750 10749 10748 10748 10747 10747 10747 10746 10746 10745 10745 10744 10743 10743 10742 10741 10740 10739 10737 10736 10735 10733 10733 10732 10731
10758 10759 10761 10763 10765 10766 10768 10769 10770 10770 10771 10772 10772 10773 10773 10773 10773 10773 10772 10772 10771 10771 10770 10770 10770 10769 10768 10767 10766 10765 10765 10764 10764 10763 10763 10762 10761 10761 10760 10759 10758 10758 10757 10756 10755 10754 10753 10752 10751 10750 10749 10748 10747 10746 10746 10745 10744 10743 10742 10741 10740 10739 10738 10738 10737 10737 10736 10736 10735 10735 10734 10733 10732 10732 10731 10730 10729 10727 10726 10725 10723 10722 10721 10720 10719
10752 10754 10756 10758 10760 10761 10763 10764 10765 10765 10766 10767 10767 10768 10768 10768 10768 10768 10767 10767 10766 10766 10766 10765 10764 10763 10762 10761 10760 10760 10759 10758 10758 10758 10757 10757 10756 10755 10754 10753 10752 10751 10750 10749 10748 10747 10745 10744 10743 10742 10741 10740 10739 10738 10738 10737 10736 10735 10734 10733 10732 10731 10730 10729 10728 10727 10727 10726 10726 10725 10724 10724 10723 10722 10721 10720 10718 10717 10716 10715 10713 10712 10710 10709 10708
10747 10748 10750 10752 10754 10756 10757 10758 10759 10760 10761 10762 10762 10762 10762 10763 10763 10763 10763 10762 10762 10762 10761 10760 10759 10758 10757 10756 10755 10755 10754 10753 10753 10753 10752 10752 10751 10750 10749 10748 10747 10746 10744 10743 10741 10740 10739 10738 10736 10735 10734 10733 10732 10731 10730 10730 10728 10727 10726 10725 10724 10723 10722 10721 10720 10719 10719 10718 10717 10717 10716 10715 10714 10713 10712 10710 10709 10709 10707 10706 10704 10702 10700 10698 10696
10741 10743 10745 10747 10748 10750 10751 10753 10754 10755 10755 10756 10757 10757 10757 10758 10758 10758 10758 10758 10758 10758 10757 10756 10755 10754 10752 10751 10751 10750 10749 10748 10748 10748 10747 10747 10746 10745 10744 10743 10742 10740 10739 10737 10736 10735 10733 10732 10731 10730 10729 10728 10727 10725 10724 10724 10722 10721 10720 10719 10717 10716 10715 10714 10713 10713 10712 10711 10710 10709 10708 10707 10706 10705 10704 10703 10702 10700 10699 10697 10695 10692 10690 10688 10686
10737 10738 10740 10742 10743 10744 10746 10747 10749 10750 10750 10750 10751 10751 10752 10752 10752 10753 10753 10753 10753 10753 10752 10751 10750 10749 10748 10747 10746 10746 10745 10744 10744 10744 10743 10742 10741 10740 10739 10738 10737 10735 10734 10733 10731 10730 10728 10727 10726 10725 10724 10722 10721 10720 10719 10718 10716 10715 10714 10712 10711 10710 10709 10708 10707 10706 10705 10704 10703 10702 10701 10699 10698 10697 10696 10695 10694 10692 10690 10688 10686 10684 10682 10680 10678
10732 10734 10736 10737 10738 10739 10740 10742 10743 10744 10745 10745 10746 10746 10747 10747 10747 10747 10748 10748 10748 10748 10747 10747 10746 10744 10743 10743 10742 10741 10741 10740 10740 10739 10739 10738 10736 10735 10734 10733 10732 10731 10729 10728 10727 10725 10724 10723 10722 10720 10719 10718 10716 10715 10713 10712 10711 10709 10708 10707 10705 10704 10703 10701 10700 10699 10698 10697 10696 10694 10693 10692 10691 10690 10688 10687 10686 10684 10683 10681 10679 10676 10674 10672 10670
10727 10729 10731 10731 10732 10733 10735 10736 10738 10739 10739 10740 10740 10740 10741 10741 10742 10742 10743 10743 10743 10743 10742 10742 10741 10740 10740 10739 10739 10738 10737 10737 10736 10735 10735 10734 10733 10732 10730 10729 10728 10726 10725 10724 10723 10722 10720 10719 10718 10716 10715 10713 10712 10710 10709 10707 10706 10705 10703 10702 10700 10699 10697 10696 10694 10693 10692 10691 10689 10688 10687 10686 10684 10683 10682 10680 10679 10677 10675 10673 10671 10669 10667 10664 10662
10723 10724 10725 10726 10727 10728 10729 10730 10732 10733 10734 10734 10734 10735 10735 10736 10736 10737 10737 10737 10738 10738 10738 10737 10737 10737 10736 10736 10736 10735 10734 10733 10733 10732 10731 10730 10729 10728 10727 10725 10724 10722 10721 10720 10719 10718 10717 10715 10714 10713 10711 10709 10708 10706 10705 10703 10702 10700 10698 10697 10695 10693 10692 10691 10689 10688 10687 10685 10684 10683 10681 10680 10679 10677 10676 10674 10672 10670 10668 10666 10664 10662 10660 10657 10655
10717 10719 10720 10721 10722 10723 10724 10725 10725 10726 10727 10728 10729 10729 10730 10730 10731 10731 10732 10732 10732 10733 10733 10733 10733 10733 10732 10732 10732 10731 10730 10729 10729 10728 10727 10726 10725 10724 10723 10722 10720 10719 10717 10716 10715 10714 10713 10712 10710 10709 10707 10706 10704 10703 10701 10700 10698 10696 10694 10692 10691 10689 10687 10686 10684 10683 10682 10680 10679 10678 10676 10675 10673 10672 10670 10668 10666 10664 10662 10660 10657 10655 10652 10650 10647
10711 10712 10713 10715 10717 10718 10719 10719 10720 10720 10721 10723 10723 10724 10725 10725 10725 10726 10726 10727 10727 10727 10728 10728 10728 10728 10728 10728 10727 10727 10726 10725 10724 10723 10723 10722 10721 10720 10719 10717 10716 10715 10714 10713 10711 10710 10708 10707 10706 10704 10703 10701 10699 10698 10697 10695 10693 10692 10690 10688 10687 10685 10683 10681 10680 10679 10677 10676 10674 10673 10671 10670 10668 10666 10664 10662 10660 10658 10655 10653 10650 10648 10645 10642 10640
10705 10706 10707 10709 10712 10713 10714 10714 10715 10715 10716 10717 10718 10719 10719 10720 10720 10721 10721 10721 10722 10722 10722 10723 10723 10723 10723 10723 10722 10722 10721 10720 10719 10718 10718 10717 10716 10715 10714 10712 10711 10710 10709 10708 10706 10705 10703 10702 10700 10699 10697 10695 10694 10692 10691 10689 10688 10686 10685 10683 10681 10680 10678 10677 10675 10673 10672 10670 10668 10667 10665 10663 10661 10659 10657 10655 10652 10650 10647 10645 10643 10640 10638 10635 10632
10699 10700 10701 10703 10706 10708 10709 10710 10710 10711 10711 10712 10713 10714 10714 10715 10715 10715 10716 10716 10716 10717 10717 10717 10718 10718 10717 10717 10717 10716 10715 10715 10714 10713 10712 10711 10711 10710 10709 10707 10706 10704 10703 10702 10700 10699 10698 10696 10695 10693 10692 10690 10688 10686 10684 10683 10681 10680 10679 10677 10676 10674 10672 10671 10669 10667 10665 10663 10661 10659 10657 10655 10653 10651 10649 10647 10644 10642 10639 10637 10634 10632 10630 10627 10624
10694 10695 10696 10698 10700 10702 10704 10705 10705 10706 10706 10707 10708 10709 10709 10709 10709 10709 10710 10710 10710 10711 10711 10711 10712 10712 10711 10711 10710 10710 10710 10709 10708 10707 10706 10705 10705 10704 10703 10702 10701 10699 10697 10696 10694 10692 10691 10690 10688 10687 10685 10683 10682 10680 10678 10676 10675 10674 10672 10671 10670 10668 10666 10664 10662 10660 10658 10656 10654 10652 10649 10647 10645 10643 10640 10638 10636 10634 10631 10629 10626 10623 10621 10618 10615